• în România
  • Lista ţărilor
  • Pe 7 zile
  • Temperatura apei
  • Hartă satelitară
  • Meteo pe hartă
  • Widget-uri
  • user-avatar
    Intrare

    Meteo pe oră la Kandi

    Astăzi, 21 Octombrie, Sâmbătă

    Timp Temperatura Precipitaţii Vânt Presiune Umiditate
    00:00 +28°C° 0 mm 1 m/s 738 mmHg 32%
    01:00 +27°C° 0 mm 1 m/s 737 mmHg 34%
    02:00 +27°C° 0 mm 1 m/s 737 mmHg 36%
    03:00 +24°C° 0 mm 0 m/s 737 mmHg 38%
    04:00 +24°C° 0 mm 0 m/s 737 mmHg 39%
    05:00 +23°C° 0 mm 0 m/s 737 mmHg 41%
    06:00 +23°C° 0 mm 0 m/s 738 mmHg 43%
    07:00 +27°C° 0 mm 0 m/s 738 mmHg 38%
    08:00 +32°C° 0 mm 1 m/s 739 mmHg 34%
    09:00 +36°C° 0 mm 1 m/s 739 mmHg 29%
    10:00 +39°C° 0 mm 1 m/s 738 mmHg 23%
    11:00 +41°C° 0 mm 1 m/s 738 mmHg 18%
    12:00 +43°C° 0 mm 2 m/s 737 mmHg 12%
    13:00 +42°C° 0 mm 2 m/s 737 mmHg 11%
    14:00 +42°C° 0 mm 2 m/s 736 mmHg 11%
    15:00 +42°C° 0 mm 2 m/s 735 mmHg 10%
    16:00 +40°C° 0 mm 1 m/s 735 mmHg 12%
    17:00 +36°C° 0 mm 1 m/s 735 mmHg 14%
    18:00 +33°C° 0 mm 1 m/s 736 mmHg 16%
    19:00 +32°C° 0 mm 1 m/s 736 mmHg 17%
    20:00 +31°C° 0 mm 1 m/s 737 mmHg 19%
    21:00 +30°C° 0 mm 1 m/s 737 mmHg 20%
    22:00 +30°C° 0 mm 1 m/s 737 mmHg 22%
    23:00 +29°C° 0 mm 1 m/s 737 mmHg 24%

    Mâine, 22 Octombrie, Duminică

    Timp Temperatura Precipitaţii Vânt Presiune Umiditate
    00:00 +28°C° 0 mm 1 m/s 737 mmHg 27%
    01:00 +28°C° 0 mm 1 m/s 737 mmHg 29%
    02:00 +27°C° 0 mm 1 m/s 737 mmHg 32%
    03:00 +27°C° 0 mm 1 m/s 737 mmHg 34%
    04:00 +27°C° 0 mm 1 m/s 737 mmHg 38%
    05:00 +27°C° 0 mm 1 m/s 737 mmHg 42%
    06:00 +26°C° 0 mm 1 m/s 737 mmHg 46%
    07:00 +29°C° 0 mm 2 m/s 738 mmHg 46%
    08:00 +31°C° 0 mm 2 m/s 738 mmHg 46%
    09:00 +34°C° 0 mm 2 m/s 739 mmHg 46%
    10:00 +37°C° 0 mm 2 m/s 738 mmHg 37%
    11:00 +41°C° 0 mm 1 m/s 738 mmHg 28%
    12:00 +41°C° 0 mm 0 m/s 737 mmHg 19%
    13:00 +41°C° 0 mm 0 m/s 736 mmHg 18%
    14:00 +41°C° 0 mm 0 m/s 736 mmHg 16%
    15:00 +40°C° 0 mm 0 m/s 735 mmHg 15%
    16:00 +37°C° 0 mm 0 m/s 735 mmHg 17%
    17:00 +35°C° 0 mm 0 m/s 735 mmHg 19%
    18:00 +34°C° 0 mm 1 m/s 735 mmHg 21%
    19:00 +33°C° 0 mm 1 m/s 736 mmHg 23%
    20:00 +32°C° 0 mm 1 m/s 736 mmHg 25%
    21:00 +31°C° 0 mm 1 m/s 737 mmHg 28%
    22:00 +30°C° 0 mm 1 m/s 737 mmHg 31%
    23:00 +30°C° 0 mm 1 m/s 737 mmHg 35%

    Poimâine, 23 Octombrie, Luni

    Timp Temperatura Precipitaţii Vânt Presiune Umiditate
    00:00 +29°C° 0 mm 1 m/s 737 mmHg 39%
    01:00 +28°C° 0 mm 2 m/s 736 mmHg 46%
    02:00 +28°C° 0 mm 2 m/s 736 mmHg 54%
    03:00 +27°C° 0 mm 2 m/s 736 mmHg 61%
    04:00 +27°C° 0 mm 2 m/s 736 mmHg 68%
    05:00 +27°C° 0 mm 2 m/s 736 mmHg 74%
    06:00 +26°C° 0 mm 2 m/s 736 mmHg 81%
    07:00 +29°C° 0 mm 2 m/s 737 mmHg 71%
    08:00 +31°C° 0 mm 2 m/s 737 mmHg 61%
    09:00 +35°C° 0 mm 3 m/s 738 mmHg 51%
    10:00 +38°C° 0 mm 2 m/s 737 mmHg 41%
    11:00 +40°C° 0 mm 1 m/s 737 mmHg 31%
    12:00 +43°C° 0 mm 1 m/s 736 mmHg 21%
    13:00 +43°C° 0 mm 1 m/s 735 mmHg 19%
    14:00 +40°C° 0 mm 0 m/s 735 mmHg 17%
    15:00 +41°C° 0 mm 0 m/s 734 mmHg 16%
    16:00 +38°C° 0 mm 0 m/s 734 mmHg 18%
    17:00 +35°C° 0 mm 0 m/s 734 mmHg 21%
    18:00 +32°C° 0 mm 0 m/s 734 mmHg 24%
    19:00 +33°C° 0 mm 1 m/s 735 mmHg 26%
    20:00 +33°C° 0 mm 1 m/s 735 mmHg 28%
    21:00 +32°C° 0 mm 1 m/s 736 mmHg 30%
    22:00 +31°C° 0 mm 1 m/s 736 mmHg 34%
    23:00 +30°C° 0 mm 1 m/s 736 mmHg 37%

    24 Octombrie, Marţi

    Timp Temperatura Precipitaţii Vânt Presiune Umiditate
    00:00 +30°C° 0 mm 1 m/s 736 mmHg 40%
    01:00 +29°C° 0 mm 1 m/s 735 mmHg 44%
    02:00 +29°C° 0 mm 2 m/s 735 mmHg 48%
    03:00 +29°C° 0 mm 2 m/s 735 mmHg 53%
    04:00 +28°C° 0 mm 2 m/s 735 mmHg 57%
    05:00 +28°C° 0 mm 2 m/s 736 mmHg 62%
    06:00 +27°C° 0 mm 2 m/s 736 mmHg 66%
    07:00 +30°C° 0 mm 2 m/s 737 mmHg 60%
    08:00 +32°C° 0 mm 2 m/s 737 mmHg 54%
    09:00 +35°C° 0 mm 3 m/s 737 mmHg 49%
    10:00 +38°C° 0 mm 2 m/s 736 mmHg 39%
    11:00 +41°C° 0 mm 1 m/s 736 mmHg 30%
    12:00 +44°C° 0 mm 1 m/s 735 mmHg 21%
    13:00 +44°C° 0 mm 1 m/s 735 mmHg 20%
    14:00 +41°C° 0 mm 0 m/s 734 mmHg 19%
    15:00 +41°C° 0 mm 0 m/s 733 mmHg 17%
    16:00 +39°C° 0 mm 0 m/s 734 mmHg 20%
    17:00 +36°C° 0 mm 0 m/s 734 mmHg 22%
    18:00 +34°C° 0 mm 0 m/s 734 mmHg 25%
    19:00 +35°C° 0 mm 1 m/s 735 mmHg 27%
    20:00 +34°C° 0 mm 1 m/s 735 mmHg 29%
    21:00 +34°C° 0 mm 1 m/s 736 mmHg 31%
    22:00 +34°C° 0 mm 1 m/s 736 mmHg 33%
    23:00 +33°C° 0 mm 1 m/s 735 mmHg 35%

    25 Octombrie, Miercuri

    Timp Temperatura Precipitaţii Vânt Presiune Umiditate
    00:00 +34°C° 0 mm 2 m/s 735 mmHg 37%
    01:00 +34°C° 0 mm 2 m/s 735 mmHg 41%
    02:00 +32°C° 0 mm 2 m/s 735 mmHg 45%
    03:00 +33°C° 0 mm 3 m/s 735 mmHg 49%
    04:00 +31°C° 0 mm 2 m/s 735 mmHg 55%
    05:00 +30°C° 0 mm 2 m/s 736 mmHg 60%
    06:00 +29°C° 0 mm 2 m/s 736 mmHg 66%
    07:00 +31°C° 0 mm 2 m/s 737 mmHg 59%
    08:00 +34°C° 0 mm 2 m/s 737 mmHg 53%
    09:00 +36°C° 0 mm 2 m/s 737 mmHg 47%
    10:00 +39°C° 0 mm 1 m/s 737 mmHg 38%
    11:00 +43°C° 0 mm 1 m/s 736 mmHg 30%
    12:00 +43°C° 0 mm 0 m/s 735 mmHg 22%
    13:00 +40°C° 0 mm 0 m/s 735 mmHg 24%
    14:00 +41°C° 0 mm 1 m/s 734 mmHg 26%
    15:00 +39°C° 0 mm 1 m/s 734 mmHg 28%
    16:00 +37°C° 0 mm 1 m/s 734 mmHg 29%
    17:00 +36°C° 0 mm 1 m/s 734 mmHg 31%
    18:00 +35°C° 0 mm 1 m/s 735 mmHg 33%
    19:00 +34°C° 0 mm 1 m/s 735 mmHg 35%
    20:00 +33°C° 0 mm 1 m/s 736 mmHg 37%
    21:00 +33°C° 0 mm 1 m/s 736 mmHg 39%
    22:00 +32°C° 0 mm 1 m/s 736 mmHg 40%
    23:00 +32°C° 0 mm 1 m/s 736 mmHg 41%

    26 Octombrie, Joi

    Timp Temperatura Precipitaţii Vânt Presiune Umiditate
    00:00 +31°C° 0 mm 1 m/s 736 mmHg 43%
    01:00 +31°C° 0 mm 1 m/s 736 mmHg 45%
    02:00 +30°C° 0 mm 1 m/s 736 mmHg 48%
    03:00 +30°C° 0 mm 2 m/s 736 mmHg 51%
    04:00 +29°C° 0 mm 2 m/s 736 mmHg 56%
    05:00 +29°C° 0 mm 1 m/s 737 mmHg 61%
    06:00 +28°C° 0 mm 1 m/s 737 mmHg 66%
    07:00 +30°C° 0 mm 1 m/s 737 mmHg 59%
    08:00 +34°C° 0 mm 2 m/s 738 mmHg 52%
    09:00 +36°C° 0 mm 2 m/s 738 mmHg 46%
    10:00 +39°C° 0 mm 2 m/s 737 mmHg 38%
    11:00 +41°C° 0 mm 2 m/s 737 mmHg 30%
    12:00 +43°C° 0 mm 1 m/s 736 mmHg 22%
    13:00 +43°C° 0 mm 2 m/s 736 mmHg 21%
    14:00 +42°C° 0 mm 2 m/s 735 mmHg 20%
    15:00 +41°C° 0 mm 2 m/s 734 mmHg 20%
    16:00 +39°C° 0 mm 2 m/s 735 mmHg 21%
    17:00 +38°C° 0 mm 2 m/s 735 mmHg 23%
    18:00 +35°C° 0 mm 1 m/s 735 mmHg 24%
    19:00 +34°C° 0 mm 1 m/s 735 mmHg 26%
    20:00 +33°C° 0 mm 1 m/s 736 mmHg 27%
    21:00 +32°C° 0 mm 1 m/s 736 mmHg 28%
    22:00 +31°C° 0 mm 1 m/s 736 mmHg 32%
    23:00 +30°C° 0 mm 1 m/s 736 mmHg 35%
    Arată mai mult